Rome, OR

1:51 PM MDT on April 24, 2017 (GMT -0600)
Rome State

Weather History for KREO - October, 2012

Change the Weather History Date:

Monday, October 8, 2012

  Actual Average Record
Temperature  
Mean Temperature 49 °F 51 °F  
Max Temperature 74 °F 69 °F 87 °F (2004)
Min Temperature 24 °F 33 °F 24 °F (2012)
Degree Days  
Heating Degree Days 16 14  
Month to date heating degree days 129 104  
Since 1 July heating degree days 186 328  
Cooling Degree Days 0 0  
Month to date cooling degree days 0 0  
Year to date cooling degree days 674 506  
Moisture  
Dew Point 4 °F    
Average Humidity 21    
Maximum Humidity 35    
Minimum Humidity 6    
Precipitation  
Precipitation 0.00 in 0.02 in 0.25 in (1959)
Month to date precipitation 0.00 0.13  
Year to date precipitation 4.28 6.86  
Sea Level Pressure  
Sea Level Pressure 29.99 in    
Wind  
Wind Speed 3 mph (SE)    
Max Wind Speed 10 mph    
Max Gust Speed 12 mph    
T = Trace of Precipitation, MM = Missing Value Source: NWS Daily Summary

Daily Weather History Graph

Daily Weather History Graph

Search for Another Location

Airport or City:

Trip Planner

Search our weather history database for the weather conditions in past years. The results will help you decide how hot, cold, wet, or windy it might be!

Date:

Astronomy

Oct. 08, 2012 Rise Set
Actual Time 6:57 AM PDT 6:19 PM PDT
Civil Twilight 6:29 AM PDT 6:48 PM PDT
Nautical Twilight 5:56 AM PDT 7:20 PM PDT
Astronomical Twilight 5:23 AM PDT 7:53 PM PDT
Moon No Moon Rise 2:20 PM PDT (10/8)
Length of Visible Light 12h 19m
Length of Day
11h 22m
Last Quarter, 45% of the Moon is Illuminated
Oct 8
Last Quarter
Oct 15
New
Oct 21
First Quarter
Oct 29
Full
Nov 6
Last Quarter

Hourly Weather History & Observations

Time (PDT) Temp. Windchill Dew Point Humidity Pressure Visibility Wind Dir Wind Speed Gust Speed Precip Events Conditions
12:52 AM 32.0 °F 24.2 °F 3.0 °F 29% 30.04 in - SSE 9.2 mph - N/A   Unknown
1:52 AM 27.0 °F 19.5 °F -0.0 °F 31% 30.05 in - SSE 6.9 mph - N/A   Unknown
2:52 AM 28.0 °F 22.8 °F -0.0 °F 30% 30.03 in - SSE 4.6 mph - N/A   Unknown
3:52 AM 28.9 °F 23.9 °F 3.0 °F 33% 30.01 in - SSE 4.6 mph - N/A   Unknown
4:52 AM 28.0 °F 22.8 °F 1.9 °F 33% 30.02 in - SSE 4.6 mph - N/A   Unknown
5:52 AM 24.1 °F 18.2 °F -0.0 °F 35% 30.03 in - NNE 4.6 mph - N/A   Unknown
6:52 AM 26.1 °F - 1.9 °F 35% 30.05 in - Calm Calm - N/A   Unknown
7:52 AM 35.1 °F - 5.0 °F 28% 30.06 in - Calm Calm - N/A   Unknown
8:52 AM 42.1 °F - 6.1 °F 23% 30.06 in - Calm Calm - N/A   Unknown
9:52 AM 48.9 °F - 8.1 °F 19% 30.04 in - Calm Calm - N/A   Unknown
10:52 AM 55.9 °F - 10.0 °F 16% 30.02 in - NW 3.5 mph - N/A   Unknown
11:52 AM 63.0 °F - 10.0 °F 13% 29.99 in - North 3.5 mph - N/A   Unknown
12:52 PM 64.9 °F - 8.1 °F 11% 29.98 in - Calm Calm - N/A   Unknown
1:52 PM 69.1 °F - 7.0 °F 9% 29.95 in - Calm Calm - N/A   Unknown
2:52 PM 70.0 °F - 6.1 °F 8% 29.93 in - Calm Calm - N/A   Unknown
3:52 PM 72.0 °F - 3.9 °F 7% 29.91 in - West 4.6 mph - N/A   Unknown
4:52 PM 73.9 °F - 3.0 °F 6% 29.90 in - Variable 4.6 mph - N/A   Unknown
5:52 PM 70.0 °F - 3.9 °F 7% 29.91 in - ENE 4.6 mph - N/A   Unknown
6:52 PM 57.9 °F - 3.0 °F 11% 29.94 in - East 9.2 mph - N/A   Unknown
7:52 PM 57.0 °F - 3.9 °F 12% 29.93 in - East 10.4 mph - N/A   Unknown
8:52 PM 46.0 °F 44.8 °F 1.9 °F 16% 29.95 in - SW 3.5 mph - N/A   Unknown
9:52 PM 46.9 °F - 1.0 °F 15% 29.95 in - Calm Calm - N/A   Unknown
10:52 PM 37.0 °F 33.3 °F -0.9 °F 20% 29.96 in - SSW 4.6 mph - N/A   Unknown
11:52 PM 37.0 °F - -2.0 °F 19% 29.96 in - Calm Calm - N/A   Unknown